Regional Weather Roundup
Issued by NWS

Home | Current Version | Previous Version | Graphics & Text | Print | Product List | Glossary On
Versions: 1 2 3 4 5 6 7 8 9 10 11 12 13 14 15 16 17 18 19 20 21 22 23 24 25 26 27 28 29 30 31 32 33 34 35 36 37 38 39 40 41 42 43 44 45 46 47 48 49 50
000
ASUS45 KABQ 282101
RWRNM
NEW MEXICO REGIONAL WEATHER ROUNDUP
NATIONAL WEATHER SERVICE ALBUQUERQUE NM
300 PM MDT TUE MAR 28 2017

NOTE: "FAIR" MEANS FEW OR NO CLOUDS BELOW 12,000 FEET AGL WITH NO
       SIGNIFICANT WEATHER OR OBSTRUCTIONS TO VISION.

      THIS PRODUCT IS RELEASED AS TWO VERSIONS.  ONE VERSION NEAR
      THE TOP OF THE HOUR CONTAINING PRELIMINARY DATA FROM ALBUQUERQUE
      AND OTHER STATIONS.  A FINAL VERSION WITH ADDITIONAL DATA IS
      ISSUED ABOUT 10 MINUTES AFTER THE HOUR.

NMZ501-503-504-510>518-282200-
NORTHWEST PLATEAU/NORTHCENTRAL MOUNTAINS

CITY           SKY/WX    TMP DP  RH WIND       PRES   REMARKS
FARMINGTON     FAIR      51  37  58 W20       29.79F
LOS ALAMOS     PTSUNNY   44  29  56 NW8       29.80F
SANTA FE       FAIR      48  37  65 N7        29.77F
TAOS             N/A     39  30  70 SW12      29.81R WCI  32
ANGEL FIRE     LGT RAIN  37  34  88 CALM      29.81F

$$
NMZ402-403-502-505>509-282200-
WESTCENTRAL MOUNTAINS/SOUTHWEST MOUNTAINS

CITY           SKY/WX    TMP DP  RH WIND       PRES   REMARKS
GALLUP         CLOUDY    46  31  55 NW16      29.86R
GRANTS         CLOUDY    49  25  39 N14G24    29.83S THUNDER
SILVER CITY    FAIR      57  25  29 W23G33    29.83F

$$
NMZ407-409-411-412-282200-
SOUTHERN DESERTS

CITY           SKY/WX    TMP DP  RH WIND       PRES   REMARKS
DEMING         PTSUNNY   57  25  29 W25G32    29.82F
LAS CRUCES     CLOUDY    55  28  35 W17G28    29.81F
HOLLOMAN AFB   FAIR      62  30  30 SW22G29   29.80S
ALAMOGORDO     FAIR      63  28  27 SW20G28   29.78R
T OR C         CLOUDY    54  33  45 NW14G20   29.77F

$$
NMZ519>523-282200-
CENTRAL VALLEYS/CENTRAL HIGHLANDS

CITY           SKY/WX    TMP DP  RH WIND       PRES   REMARKS
ALBUQUERQUE    LGT RAIN  45  37  73 W14       29.80R
DOUBLE EAGLE   RAIN      36  34  93 W13       29.82R WCI  27
MORIARTY ARPT  PTSUNNY   43  40  89 SE12      29.81F
CLINES CORNERS LGT SNOW  34  33  96 NW8       29.84R FOG     WCI  27
BELEN          FAIR      53  32  43 CALM      29.79S
SOCORRO        FAIR      55  30  39 CALM      29.78F

$$
NMZ524>526-539-540-282200-
SOUTHCENTRAL MOUNTAINS

CITY           SKY/WX    TMP DP  RH WIND       PRES   REMARKS
RUIDOSO        NOT AVBL

$$
NMZ527>531-282200-
NORTHEAST HIGHLANDS/NORTHEAST PLAINS

CITY           SKY/WX    TMP DP  RH WIND       PRES   REMARKS
LAS VEGAS      FAIR      51  31  46 S13       29.76F
RATON          CLOUDY    51  35  54 E5        29.75F
CLAYTON        CLOUDY    51  47  86 NE18G26   29.77F

$$
NMZ532>537-282200-
EASTCENTRAL PLAINS

CITY           SKY/WX    TMP DP  RH WIND       PRES   REMARKS
TUCUMCARI      PTSUNNY   66  46  48 E17G23    29.65F
CANNON AFB     PTSUNNY   72  34  24 SW16G28   29.66F
CLOVIS AIRPORT FAIR      72  36  26 SW10G17   29.67F

$$
NMZ028-029-538-282200-
SOUTHEAST PLAINS

CITY           SKY/WX    TMP DP  RH WIND       PRES   REMARKS
ROSWELL        FAIR      72  18  13 SW26G38   29.64F
ARTESIA        FAIR      73  25  16 SW31G43   29.67F
CARLSBAD       FAIR      76  25  15 W26G35    29.63F
HOBBS          MOSUNNY   77  28  16 SW12G17   29.65F


$$




USA.gov is the U.S. government's official web portal to all federal, state and local government web resources and services.